Location: Caderousse
(44.1025°N, 4.7568°E)
Time: 10:07:59
(UTC+00:00)

Daily predictions for brighter satellites

Satellite Brightness Start Highest point End
(mag) Time Altitude Azimuth Time Altitude Azimuth Time Altitude Azimuth
CZ-4C R/B 4.4 18:52:54 10° W 18:57:21 27° NNW 19:02:32 10° NNE
MetOp-A 4.3 18:52:23 10° SSE 18:57:37 58° ENE 19:02:53 10° N
Exosat Rocket 4.0 18:51:56 10° NNW 18:58:05 52° ENE 19:03:03 10° SE
ATLAS 2AS CENTAUR R/B 3.5 18:51:18 10° SW 18:59:12 69° NW 19:06:59 10° NE
BREEZE-M DEB (TANK) 3.7 18:56:53 10° WSW 18:59:36 70° NNW 19:05:50 10° ENE
Cosmos 1092 Rocket 4.0 18:55:43 10° N 19:01:57 69° E 19:08:06 10° SSE
Cosmos 2297 Rocket 3.2 18:59:30 10° SSE 19:04:00 25° ESE 19:08:31 10° NE
Cosmos 2058 3.3 19:00:28 10° N 19:04:30 46° ENE 19:08:30 10° SSE
FALCON 9 DEB 4.2 19:02:37 10° S 19:05:00 21° SE 19:07:23 10° E
SL-08 RB Rocket 4.3 19:01:26 10° S 19:06:02 64° W 19:10:38 10° NNW
Cosmos 405 3.1 19:02:42 10° SSW 19:06:08 80° W 19:09:39 10° N
Lacrosse 5 rocket 4.0 19:04:10 10° NW 19:06:36 15° N 19:09:06 10° NNE
ARGOS 4.2 19:01:59 10° S 19:07:10 50° W 19:12:23 10° NNW
YAOGAN 1 4.4 19:04:04 10° SSW 19:08:00 34° W 19:11:57 10° NNW
FALCON 9 DEB 3.8 19:06:59 10° SSW 19:09:38 28° SE 19:12:17 10° ENE
Resurs 01 Rocket 3.2 19:09:04 10° ESE 19:12:19 20° ENE 19:15:34 10° NNE
Cosmos 2219 4.1 19:08:32 10° SSE 19:13:08 27° ESE 19:17:44 10° NE
Resurs 1-3 4.5 19:10:00 10° SE 19:13:53 32° ENE 19:17:49 10° N
BREEZE-M DEB (TANK) 3.6 19:11:22 10° W 19:14:47 65° NNW 19:25:46 10° ENE
Cosmos 2333 Rocket 2.9 19:11:20 10° NNW 19:16:59 58° WSW 19:22:34 10° S
SJ-6B 2.8 19:14:07 10° SSE 19:17:46 59° ENE 19:21:30 10° N
SAR-Lupe-4 4.3 19:15:42 10° N 19:19:14 59° WNW 19:22:45 10° SSW
Cosmos 1689 Rocket 4.1 19:16:50 10° N 19:19:25 32° WNW 19:21:58 10° SW
Cosmos 2084 Rocket 4.3 19:17:58 10° S 19:21:11 24° ESE 19:24:26 10° ENE
FALCON 9 DEB 3.3 19:18:48 10° SSW 19:21:39 39° SE 19:24:31 10° ENE
CZ-2C R/B 3.7 19:16:41 10° N 19:21:41 49° WNW 19:26:45 10° SW
Cosmos 389 Rocket 3.1 19:18:44 10° SSE 19:21:59 36° E 19:25:17 10° NNE
ERS-2 2.7 19:20:21 10° N 19:23:58 61° WNW 19:27:32 10° SSW
CSL-04 Rocket 4.4 19:18:57 10° S 19:24:07 54° W 19:29:18 10° NNW
Ariane Rocket 3.2 19:19:22 10° SE 19:24:14 52° ENE 19:29:09 10° N
Cosmos 614 Rocket 3.9 19:20:18 10° S 19:25:23 68° ESE 19:30:28 10° NNE
Cosmos 2251 Rocket 3.6 19:21:46 10° SSW 19:27:08 86° WNW 19:32:30 10° NNE
ATLAS 3B R/B 3.0 19:24:18 10° NW 19:31:22 78° WSW 19:38:42 10° SSE
Cosmos 2279 Rocket 4.1 19:26:08 10° SSE 19:32:08 56° E 19:38:11 10° NNE
MOS 1 4.3 19:31:57 10° SSE 19:37:33 72° ENE 19:43:12 10° N
Cosmos-2242 4.1 19:35:48 15° SE 19:38:24 25° E 19:41:55 10° NE
Cosmos 1980 3.8 19:33:46 10° NNW 19:39:26 63° ENE 19:44:12 15° SE
SL-16 R/B 3.6 19:35:09 10° N 19:39:46 25° NE 19:43:26 14° E
Cosmos 2026 Rocket 4.1 19:33:56 10° N 19:40:02 78° W 19:46:10 10° S
USA 215 4.3 19:35:03 10° E 19:40:56 37° NNE 19:46:49 10° NW
Cosmos 2151 3.8 19:37:40 10° N 19:41:36 34° ENE 19:44:10 18° SE
FALCON 9 DEB 2.9 19:40:27 10° SW 19:43:25 53° SE 19:46:26 10° ENE
SPOT 3 Rocket 4.1 19:40:39 15° SE 19:44:32 42° ENE 19:49:24 10° N
Cosmos 1455 3.8 19:42:45 10° SW 19:46:14 36° WNW 19:49:43 10° N
COSMOS 2455 3.7 19:42:16 10° SSE 19:47:09 27° ESE 19:52:05 10° NE
IRS-1A Rocket 4.3 19:44:18 10° SSE 19:49:53 90° WSW 19:55:38 10° NNW
SL-4 R/B 2.2 19:46:04 10° SW 19:50:18 59° SE 19:54:51 10° ENE
USA 186 3.8 19:50:03 10° SSW 19:52:55 28° W 19:55:42 10° NW
BREEZE M DEB (TANK) 4.0 19:50:41 10° SSW 19:53:47 35° SE 20:01:24 10° ENE
Cosmos 2219 Rocket 3.7 19:48:50 10° NW 19:53:54 34° WSW 19:58:57 10° SSW
BREEZE-M DEB (TANK) 4.2 19:53:26 10° WSW 19:55:14 16° SSW 19:57:33 11° S
IGS 5A 3.9 19:54:21 23° SE 19:56:32 42° ENE 20:00:28 10° N
OBJECT-B 2.2 19:54:36 10° SSW 19:57:37 37° W 20:00:41 10° NNW
Cosmos 1076 Rocket 3.5 19:53:33 10° N 19:57:55 87° W 20:01:45 13° S
Landsat 7 4.3 19:55:13 21° SE 19:57:57 43° ENE 20:02:26 10° N
COSMOS 2428 4.0 19:52:58 10° NW 19:58:13 38° WSW 20:03:27 10° S
Cosmos 2266 Rocket 4.3 19:52:21 10° N 19:58:29 47° ENE 20:02:36 20° SE
ATLAS 5 CENTAUR R/B 2.7 19:57:50 10° WNW 19:59:30 22° SW 20:01:00 15° S
Cosmos 2292 Rocket 4.1 19:58:08 10° N 20:04:31 89° W 20:08:34 14° S
Cosmos 2344 4.1 19:57:28 10° SW 20:04:50 61° NW 20:12:43 10° NE
ARIANE 5 R/B 3.9 20:04:04 21° E 20:05:22 24° ENE 20:08:54 10° NNE
Cosmos 1356 4.3 20:02:28 10° NNW 20:05:46 47° W 20:08:40 13° S
Cosmos 407 Rocket 3.4 20:00:50 10° SSW 20:05:56 83° ESE 20:11:09 10° NNE
USA 245 4.3 20:05:50 23° E 20:06:06 23° ENE 20:08:40 10° NNE
IRIDIUM 104 4.3 20:04:50 10° S 20:10:03 88° W 20:15:18 10° N
Cosmos 1023 Rocket 4.3 20:05:56 10° SSW 20:11:01 83° ESE 20:16:08 10° NNE
MetOp-B 4.3 20:09:17 25° SE 20:12:19 56° ENE 20:17:34 10° N
Meteor 2-3 Rocket 3.8 20:08:47 10° N 20:14:30 63° ENE 20:17:46 26° SSE
Cosmos 44 Rocket 3.8 20:12:52 10° S 20:17:32 39° ESE 20:22:20 10° NE
Meteor 1-27 4.5 20:14:09 20° SSE 20:17:53 51° E 20:23:29 10° NNE
Cosmos 405 Rocket 4.2 20:14:13 10° NNW 20:17:54 37° W 20:21:29 10° SSW
Cosmos 1140 Rocket 3.4 20:14:06 10° SSW 20:19:13 86° WNW 20:24:23 10° NNE
Cosmos 1812 Rocket 4.0 20:16:42 10° SSW 20:21:06 63° W 20:25:33 10° N
Cosmos 1954 Rocket 4.0 20:19:29 17° S 20:23:20 54° ESE 20:28:23 10° NNE
CZ-2C R/B 3.6 20:21:12 10° NNE 20:25:37 63° ESE 20:27:43 30° S
Timation 2 Rocket 4.0 20:19:33 10° SSW 20:26:10 87° ESE 20:32:31 10° NNE
Cosmos 2237 Rocket 2.6 20:21:40 10° NNW 20:27:13 60° WSW 20:30:47 22° S
Cosmos 2263 Rocket 4.1 20:34:38 14° ENE 20:34:38 14° ENE 20:35:54 10° ENE
Spot 2 Rocket 3.8 20:32:07 37° ESE 20:33:42 51° ENE 20:38:37 10° N
CARTOSAT-1 4.1 20:33:28 37° E 20:34:01 39° ENE 20:38:02 10° N
BREEZE M DEB (TANK) 3.3 20:26:20 10° WSW 20:34:30 56° NNW 20:36:34 19° NE
Cosmos 1766 Rocket 3.7 20:31:29 10° N 20:35:44 52° ENE 20:36:22 48° ESE
FALCON 9 DEB 3.8 20:37:39 10° WSW 20:40:36 46° NNW 20:41:37 31° NNE
Cosmos 2227 Rocket 2.4 20:35:18 10° SSW 20:40:57 72° WNW 20:46:38 10° NNE
Cosmos 2082 3.6 20:37:15 20° S 20:41:06 62° ESE 20:46:38 10° NNE
Cosmos 1633 3.7 20:38:34 10° NNW 20:41:57 39° W 20:43:19 27° SW
Okean 3 Rocket 3.6 20:40:25 10° N 20:44:56 67° E 20:45:39 57° SE
FALCON 9 DEB 4.3 20:42:27 10° W 20:45:16 36° NNW 20:46:28 25° NNE
Cosmos 1655 Rocket 4.3 20:40:27 10° NNW 20:46:40 66° W 20:50:54 21° S
Lacrosse 5 rocket 3.8 20:44:16 10° NNW 20:47:12 18° NNE 20:49:59 11° NE
Cosmos 2297 Rocket 3.0 20:42:13 10° SW 20:47:42 51° WNW 20:53:13 10° NNE
Cosmos 1869 3.1 20:47:58 74° SE 20:48:11 77° E 20:52:08 10° NNE
Resurs 01 Rocket 2.6 20:46:10 24° SSW 20:48:30 44° W 20:52:47 10° NNW
Meteor 1-4 Rocket 2.8 20:50:30 55° NNE 20:50:30 55° NNE 20:53:22 10° NNE
Cosmos 468 Rocket 4.3 20:45:55 10° N 20:50:54 49° ENE 20:51:46 44° E
Genesis I 3.9 20:48:12 10° NW 20:52:03 46° WSW 20:52:33 43° SW
Cosmos 2219 4.2 20:51:35 10° SW 20:56:59 47° WNW 21:02:25 10° NNE
Cosmos 1763 Rocket 3.5 20:58:45 10° NNW 21:03:47 60° ENE 21:04:17 57° E
Terra 2.3 21:03:52 43° ENE 21:03:55 43° ENE 21:08:25 10° N
Meteor 2-8 Rocket 4.4 21:02:56 31° S 21:06:08 85° W 21:12:17 10° N
BREEZE-M DEB (TANK) 4.2 21:07:57 10° WNW 21:08:46 21° WNW 21:08:46 21° WNW
Cosmos 540 Rocket 4.1 21:06:41 10° N 21:11:29 39° ENE 21:11:41 38° ENE
SPOT 5 2.6 21:14:08 75° E 21:14:11 75° ENE 21:19:00 10° N
SPOT 1/Viking Rocket 4.1 21:14:16 38° SSW 21:15:53 53° W 21:21:01 10° NNW
Meteor 2-2 Rocket 4.2 21:15:41 62° SE 21:16:19 67° E 21:21:58 10° NNE
NOSS 3-1 (C) 4.2 21:09:54 10° NNW 21:17:21 67° NE 21:20:23 42° ESE
Cosmos 1842 Rocket 4.0 21:20:26 54° NE 21:20:26 54° NE 21:24:02 10° NNE
USA 215 3.2 21:21:35 51° ESE 21:23:28 83° NE 21:30:02 10° NW
SL-16 R/B 2.5 21:18:43 10° NNW 21:24:18 59° WSW 21:25:19 51° SSW
SL-4 R/B 3.4 21:25:51 10° W 21:30:09 44° NNW 21:33:32 17° NE
SL-08 ROCKET BODY 4.3 21:25:11 10° N 21:31:13 67° E 21:31:36 65° ESE
COSMOS 2455 3.4 21:26:50 10° SW 21:32:44 56° NW 21:38:39 10° NNE
ERS-1 Rocket 3.0 21:33:53 69° WSW 21:34:04 69° WSW 21:39:06 10° NNW
Cosmos 1408 Rocket 4.0 21:31:08 10° NNW 21:34:52 59° NW 21:34:52 59° NW
Cosmos 2221 3.2 21:41:54 51° NNW 21:41:54 51° NNW 21:45:14 10° N
ARIANE 5 R/B 3.8 21:41:36 34° W 21:41:39 34° W 21:45:41 10° NNW
Cosmos 1862 4.5 21:38:45 10° NNW 21:41:30 42° NNW 21:41:30 42° NNW
Meteor 2-15 Rocket 4.5 21:43:55 58° SW 21:45:06 74° W 21:51:11 10° N
Cosmos 1943 3.4 21:44:42 10° NNW 21:50:06 57° NE 21:50:06 57° NE
Cosmos 1745 Rocket 3.9 21:47:02 10° N 21:53:20 70° E 21:53:25 70° E
Cosmos 1570 Rocket 4.4 21:48:38 10° NNW 21:53:15 54° NE 21:53:15 54° NE
SeaSat 1 4.3 21:49:43 10° NE 21:51:18 19° NE 21:51:18 19° NE
Cosmos 1743 Rocket 4.5 21:49:58 10° N 21:53:02 45° NNW 21:53:02 45° NNW
S3M 3.9 22:05:25 83° E 22:05:26 83° E 22:11:51 10° N
BREEZE-M DEB (TANK) 4.4 22:01:37 10° WNW 22:06:20 38° WNW 22:06:20 38° WNW
Cosmos 2263 Rocket 2.4 22:16:15 67° NNW 22:16:15 67° NNW 22:21:19 10° NNE
Aureole 1 Rocket 4.2 22:17:35 51° WNW 22:17:35 51° WNW 22:22:08 10° N
Cosmos 1386 Rocket 4.5 22:16:40 10° NNW 22:22:22 72° WNW 22:22:22 72° WNW
USA 229 DEB 3.8 22:19:17 10° NW 22:26:40 78° WSW 22:27:01 76° SSW
USA 229 3.8 22:19:22 10° NW 22:26:46 79° SW 22:27:07 77° SSW
Lacrosse 5 rocket 3.2 22:22:58 10° NW 22:25:35 32° NNW 22:25:35 32° NNW
Cosmos 1603 4.4 22:33:24 10° NNW 22:37:52 48° WNW 22:37:52 48° WNW
Terra 3.8 22:42:44 21° WNW 22:42:44 21° WNW 22:45:32 10° NW
NOSS 3-1 (A) 4.1 22:37:04 10° NW 22:44:41 69° WSW 22:45:03 68° SW
SL-4 R/B 4.3 23:06:25 10° WNW 23:09:09 27° NNW 23:09:09 27° NNW
Cosmos 2315 Rocket 4.5 23:16:01 55° WNW 23:16:01 55° WNW 23:21:49 10° N
Cosmos 2184 Rocket 4.4 23:09:35 10° N 23:14:58 58° NE 23:14:58 58° NE
ATLAS 5 CENTAUR R/B 4.0 23:20:17 10° NNW 23:24:50 26° NE 23:27:06 21° ENE
SeaSat 1 3.9 23:27:17 10° N 23:31:05 33° NW 23:31:05 33° NW
Cosmos 1844 4.5 23:41:40 49° NNE 23:41:40 49° NNE 23:45:47 10° NNE
Cosmos 2074 Rocket 4.3 23:36:02 10° N 23:41:12 61° NNW 23:41:12 61° NNW
USA 281 3.6 23:43:08 55° ENE 23:43:25 56° ENE 23:49:49 10° NNW
